Location: Chequamegon National Forest
(46.1070°N, 90.8420°W)
Time: 20:24:50
(UTC-06:00)

ISS - All Passes

Search period start: 05 March 2015 00:00
Search period end: 15 March 2015 01:00
Orbit: 397 x 408 km, 51.6° (Epoch: 05 March)

Date Brightness Start Highest point End Pass type
(mag) Time Alt. Az. Time Alt. Az. Time Alt. Az.
05 Mar - 07:59:06 10° SSW 08:02:01 32° SE 08:04:58 10° ENE daylight
05 Mar - 09:35:14 10° W 09:38:23 49° NNW 09:41:32 10° ENE daylight
05 Mar - 11:12:23 10° WNW 11:15:16 29° N 11:18:10 10° ENE daylight
05 Mar - 12:48:59 10° WNW 12:52:09 50° NNE 12:55:19 10° E daylight
05 Mar - 14:25:34 10° WNW 14:28:30 31° SW 14:31:25 10° SSE daylight
06 Mar - 07:06:57 10° S 07:09:17 19° SE 07:11:41 10° E daylight
06 Mar - 08:42:13 10° WSW 08:45:26 74° NNW 08:48:41 10° ENE daylight
06 Mar - 10:19:18 10° WNW 10:22:12 30° N 10:25:08 10° ENE daylight
06 Mar - 11:56:06 10° NW 11:59:09 37° NNE 12:02:12 10° E daylight
06 Mar - 13:32:31 10° WNW 13:35:42 55° SSW 13:38:53 10° SE daylight
07 Mar - 06:15:55 10° SE 06:16:35 11° SE 06:17:23 10° ESE daylight
07 Mar - 07:49:20 10° SW 07:52:32 68° SSE 07:55:45 10° ENE daylight
07 Mar - 09:26:08 10° W 09:29:08 35° NNW 09:32:10 10° ENE daylight
07 Mar - 11:03:09 10° WNW 11:06:06 31° N 11:09:03 10° ENE daylight
07 Mar - 12:39:35 10° WNW 12:42:49 87° NNE 12:46:04 10° ESE daylight
07 Mar - 14:16:50 10° W 14:18:54 16° SW 14:20:53 10° S daylight
08 Mar - 07:56:39 10° SSW 07:59:40 38° SE 08:02:42 10° ENE daylight
08 Mar - 09:32:57 10° W 09:36:05 45° NNW 09:39:13 10° ENE daylight
08 Mar - 11:10:06 10° WNW 11:12:59 29° N 11:15:53 10° ENE daylight
08 Mar - 12:46:39 10° WNW 12:49:51 56° NNE 12:53:02 10° ESE daylight
08 Mar - 14:23:19 10° W 14:26:07 27° SW 14:28:54 10° SSE daylight
09 Mar - 07:04:17 10° SSW 07:06:50 22° SE 07:09:27 10° E daylight
09 Mar - 08:39:50 10° WSW 08:43:03 65° NNW 08:46:16 10° ENE daylight
09 Mar - 10:16:57 10° WNW 10:19:51 29° N 10:22:45 10° ENE daylight
09 Mar - 11:53:41 10° NW 11:56:47 40° NNE 11:59:51 10° E daylight
09 Mar - 13:30:08 10° WNW 13:33:16 47° SW 13:36:23 10° SE daylight
10 Mar - 06:12:37 10° SSE 06:14:03 13° SE 06:15:34 10° ESE visible
10 Mar - 07:46:49 10° WSW 07:50:03 79° SSE 07:53:17 10° ENE daylight
10 Mar - 09:23:43 10° WNW 09:26:41 33° N 09:29:41 10° ENE daylight
10 Mar - 11:00:41 10° WNW 11:03:39 32° N 11:06:37 10° ENE daylight
10 Mar - 12:37:04 10° WNW 12:40:19 82° SSW 12:43:33 10° ESE daylight
10 Mar - 14:14:39 10° WSW 14:16:19 13° SW 14:17:55 10° SSW daylight
11 Mar - 06:53:58 10° SW 06:57:04 45° SE 07:00:11 10° ENE visible
11 Mar - 08:30:26 10° W 08:33:32 41° NNW 08:36:38 10° ENE daylight
11 Mar - 10:07:33 10° WNW 10:10:27 29° N 10:13:22 10° ENE daylight
11 Mar - 11:44:03 10° WNW 11:47:16 62° NNE 11:50:29 10° ESE daylight
11 Mar - 13:20:50 10° W 13:23:29 23° SW 13:26:06 10° SSE daylight
12 Mar - 06:01:25 10° SSW 06:04:08 25° SE 06:06:54 10° E visible
12 Mar - 07:37:12 10° WSW 07:40:24 58° NNW 07:43:36 10° ENE daylight
12 Mar - 09:14:20 10° WNW 09:17:14 29° N 09:20:08 10° ENE daylight
12 Mar - 10:51:02 10° WNW 10:54:08 43° NNE 10:57:15 10° E daylight
12 Mar - 12:27:30 10° WNW 12:30:34 40° SW 12:33:37 10° SE daylight
13 Mar - 05:09:23 10° S 05:11:15 15° SE 05:13:12 10° E visible
13 Mar - 06:44:03 10° WSW 06:47:17 89° S 06:50:33 10° ENE visible
13 Mar - 08:21:02 10° WNW 08:23:59 32° N 08:26:57 10° ENE daylight
13 Mar - 09:57:56 10° WNW 10:00:56 34° NNE 10:03:56 10° E daylight
13 Mar - 11:34:20 10° WNW 11:37:33 72° SSW 11:40:46 10° SE daylight
13 Mar - 13:12:22 10° WSW 13:13:30 11° SW 13:14:32 10° SSW daylight
14 Mar - 05:51:04 10° SW 05:54:13 52° SSE 05:57:24 10° ENE visible
14 Mar - 07:27:40 10° W 07:30:45 38° NNW 07:33:48 10° NE daylight
14 Mar - 09:04:45 10° WNW 09:07:40 30° N 09:10:35 10° ENE daylight
14 Mar - 10:41:12 10° WNW 10:44:26 70° NNE 10:47:40 10° ESE daylight
14 Mar - 12:18:08 10° W 12:20:36 20° SW 12:23:01 10° S daylight
